sat.trackr.live / text

‹ back to catalog

STARLINK-33670

NORAD 63413 · 2025-065Q

PAYLOAD ACTIVE UNKNOWN

§ Identity

Operator
Country
US
Launch date
2025-03-31
Launch site
AFETR
Launch vehicle
Mass (kg)
RCS (m²)

Purposes: comms

External: N2YO · Heavens-Above · Gunter

§ Orbital elements

Epoch: 2026-09-20T21:12:34.247808Z

Period
94.27 min
Inclination
43.0031°
Eccentricity
0.0000895
Mean motion
15.27585955 rev/d
Perigee alt
482.4 km
Apogee alt
483.6 km
Semi-major
6,861.2 km
B*
3.6278e-4
RAAN
84.5748°
Arg perigee
16.1849°
Mean anomaly
343.9031°
Rev number
8,269

§ Raw data

STARLINK-336701 63413U 25065Q   26263.88372972  .00009736  00000+0  36278-3 0  99932 63413  43.0031  84.5748 0000895  16.1849 343.9031 15.27585955 82697

JSON: /api/v1/satellites/63413 · /tle

For live sub-satellite position, see the globe view (requires WebGL).

§ Visibility from observer

Set your observer location to see the next 7 days of passes ≥ 10°. The values pass through the URL so the page stays shareable.

No JS? Fill the form by hand. The geolocation button needs JavaScript.